KE8CZD Weather Reports


time (UTC)temp
C
wind
direction
speed
KPH
gust
KPH
rain 1hr
cm
rain 24hr
cm
rain mn
cm
humidity
%
barometer
mb
20260503180044 17 260 4.8 11.3 0.00 0.00 0.00 27 1007.0
20260503175444 16 284 3.2 11.3 0.00 0.00 0.00 28 1007.3
20260503174844 16 241 6.4 19.3 0.00 0.00 0.00 29 1007.2
20260503174243 16 231 6.4 19.3 0.00 0.00 0.00 29 1007.4
20260503173644 16 247 4.8 16.1 0.00 0.00 0.00 29 1007.5
20260503173043 16 277 4.8 24.1 0.00 0.00 0.00 30 1007.6
20260503172444 16 254 4.8 16.1 0.00 0.00 0.00 30 1007.7
20260503171844 16 250 3.2 11.3 0.00 0.00 0.00 31 1007.9
20260503171244 15 266 1.6 11.3 0.00 0.00 0.00 31 1008.0
20260503170644 15 274 3.2 11.3 0.00 0.00 0.00 32 1008.2
20260503150644 13 258 1.6 8.0 0.00 0.00 0.00 32 1009.3
20260503131244 8 258 3.2 11.3 0.00 0.00 0.00 41 1010.3
20260503130645 8 250 1.6 11.3 0.00 0.00 0.00 42 1010.4
20260503110644 2 0 0.0 0.0 0.00 0.00 0.00 56 1011.0
20260503081244 1 0 0.0 0.0 0.00 0.00 0.00 68 1012.5
20260503072444 1 0 0.0 0.0 0.00 0.00 0.00 71 1012.8
20260503071844 1 0 0.0 0.0 0.00 0.00 0.00 71 1012.7
20260503071244 1 0 0.0 0.0 0.00 0.00 0.00 70 1012.7
20260503070644 1 0 0.0 0.0 0.00 0.00 0.00 70 1012.7
20260503054844 2 0 0.0 0.0 0.00 0.00 0.00 64 1013.3
20260503054244 2 0 0.0 0.0 0.00 0.00 0.00 64 1013.3
20260503053644 2 0 0.0 0.0 0.00 0.00 0.00 64 1013.2
20260503053044 2 0 0.0 0.0 0.00 0.00 0.00 64 1013.2
20260503051844 2 0 0.0 0.0 0.00 0.00 0.00 62 1013.3
20260503051244 2 0 0.0 0.0 0.00 0.00 0.00 62 1013.3
20260503050644 2 0 0.0 0.0 0.00 0.00 0.00 61 1013.4
20260503050044 2 0 0.0 0.0 0.00 0.00 0.00 61 1013.4
20260503045445 2 0 0.0 0.0 0.00 0.00 0.00 60 1013.4
20260503044844 2 0 0.0 0.0 0.00 0.00 0.00 61 1013.4
20260503044244 2 0 0.0 0.0 0.00 0.00 0.00 63 1013.3
20260503043644 2 0 0.0 0.0 0.00 0.00 0.00 63 1013.4
20260503043044 2 0 0.0 0.0 0.00 0.00 0.00 62 1013.4
20260503042444 3 0 0.0 0.0 0.00 0.00 0.00 62 1013.3
20260503041844 3 0 0.0 0.0 0.00 0.00 0.00 62 1013.4
20260503041244 2 0 0.0 0.0 0.00 0.00 0.00 62 1013.5
20260503040644 2 0 0.0 0.0 0.00 0.00 0.00 62 1013.4
20260503040044 2 0 0.0 0.0 0.00 0.00 0.00 61 1013.5
20260503035445 3 0 0.0 0.0 0.00 0.00 0.00 61 1013.5
20260503034244 2 0 0.0 0.0 0.00 0.00 0.00 60 1013.5
20260503033644 3 0 0.0 0.0 0.00 0.00 0.00 60 1013.5
20260503033044 3 0 0.0 0.0 0.00 0.00 0.00 60 1013.6
20260503032444 3 0 0.0 0.0 0.00 0.00 0.00 61 1013.7
20260503031844 3 0 0.0 0.0 0.00 0.00 0.00 61 1013.7
20260503031244 3 0 0.0 0.0 0.00 0.00 0.00 61 1013.7
20260503030644 3 0 0.0 0.0 0.00 0.00 0.00 61 1013.7
20260503025444 3 0 0.0 0.0 0.00 0.00 0.00 62 1013.7
20260503024244 3 0 0.0 0.0 0.00 0.00 0.00 60 1013.9
20260503023644 3 0 0.0 0.0 0.00 0.00 0.00 59 1013.9
20260503023045 3 0 0.0 0.0 0.00 0.00 0.00 58 1013.8
20260503022444 3 0 0.0 0.0 0.00 0.00 0.00 56 1013.8
20260503021845 4 0 0.0 0.0 0.00 0.00 0.00 55 1013.7
20260503021244 4 0 0.0 0.0 0.00 0.00 0.00 54 1013.7
20260503020644 4 0 0.0 0.0 0.00 0.00 0.00 53 1013.8
20260503020044 4 0 0.0 0.0 0.00 0.00 0.00 53 1013.6
20260503015444 5 0 0.0 0.0 0.00 0.00 0.00 51 1013.6
20260503014845 5 0 0.0 0.0 0.00 0.00 0.00 51 1013.6
20260503013644 5 0 0.0 0.0 0.00 0.00 0.00 51 1013.4
20260503013044 5 0 0.0 0.0 0.00 0.00 0.00 51 1013.5
20260503012444 5 0 0.0 0.0 0.00 0.00 0.00 50 1013.4
20260503011844 5 0 0.0 0.0 0.00 0.00 0.00 50 1013.4
20260503011243 5 0 0.0 0.0 0.00 0.00 0.00 49 1013.4
20260503010644 5 0 0.0 0.0 0.00 0.00 0.00 48 1013.3
20260503010044 6 0 0.0 0.0 0.00 0.00 0.00 47 1013.3
20260503005443 6 0 0.0 0.0 0.00 0.00 0.00 40 1013.3
20260503004844 7 0 0.0 0.0 0.00 0.00 0.00 39 1013.1
20260503004244 7 0 0.0 0.0 0.00 0.00 0.00 39 1013.0
20260503003644 7 0 0.0 0.0 0.00 0.00 0.00 38 1013.0
20260503003044 7 277 0.0 3.2 0.00 0.00 0.00 38 1012.9
20260503002444 7 284 0.0 3.2 0.00 0.00 0.00 36 1012.8
20260503001844 8 276 0.0 3.2 0.00 0.00 0.00 36 1012.8
20260503001243 8 306 0.0 3.2 0.00 0.00 0.00 36
20260503000644 8 269 0.0 3.2 0.00 0.00 0.00 35 1012.6
20260503000043 8 262 0.0 3.2 0.00 0.00 0.00 35 1012.8
20260502235445 8 263 0.0 3.2 0.00 0.00 0.00 35 1012.8
20260502234844 8 280 0.0 3.2 0.00 0.00 0.00 34 1012.8
20260502234244 8 279 0.0 8.0 0.00 0.00 0.00 34 1012.9
20260502233644 8 250 0.0 8.0 0.00 0.00 0.00 34 1012.9
20260502233044 8 270 1.6 8.0 0.00 0.00 0.00 33 1013.0
20260502232444 8 260 0.0 3.2 0.00 0.00 0.00 33 1012.9
20260502231843 8 45 0.0 3.2 0.00 0.00 0.00 33 1013.0
20260502231244 8 279 0.0 8.0 0.00 0.00 0.00 33 1012.9
20260502230644 8 325 0.0 8.0 0.00 0.00 0.00 34 1013.0
20260502230043 8 269 0.0 8.0 0.00 0.00 0.00 34 1013.0
20260502225443 8 272 0.0 3.2 0.00 0.00 0.00 34 1013.0
20260502224844 8 327 0.0 3.2 0.00 0.00 0.00 33 1012.9
20260502224243 8 330 1.6 11.3 0.00 0.00 0.00 32 1013.0
20260502223644 9 6 0.0 3.2 0.00 0.00 0.00 32 1012.9
20260502223044 8 288 0.0 8.0 0.00 0.00 0.00 33 1013.0
20260502222443 8 288 0.0 3.2 0.00 0.00 0.00 34 1013.0
20260502221843 8 290 0.0 8.0 0.00 0.00 0.00 34 1013.0
20260502221244 8 296 1.6 11.3 0.00 0.00 0.00 34 1013.0
20260502220643 8 275 1.6 8.0 0.00 0.00 0.00 33 1013.2
20260502220043 8 269 3.2 16.1 0.00 0.00 0.00 32 1013.1
20260502215444 9 283 1.6 11.3 0.00 0.00 0.00 33 1013.0
20260502214843 8 308 1.6 8.0 0.00 0.00 0.00 33 1013.1
20260502214243 8 291 0.0 3.2 0.00 0.00 0.00 33 1013.1
20260502213644 8 283 1.6 11.3 0.00 0.00 0.00 33
20260502213044 8 313 1.6 8.0 0.00 0.00 0.00 33 1013.2
20260502212444 8 267 1.6 11.3 0.00 0.00 0.00 33 1013.2
20260502211843 8 279 1.6 8.0 0.00 0.00 0.00 34 1013.2
20260502211243 8 287 1.6 19.3 0.00 0.00 0.00 34 1013.3
20260502210643 8 271 3.2 11.3 0.00 0.00 0.00 34 1013.3
20260502210044 8 295 1.6 8.0 0.00 0.00 0.00 34 1013.3
20260502205443 7 346 1.6 8.0 0.00 0.00 0.00 33 1013.3
20260502204844 7 287 1.6 11.3 0.00 0.00 0.00 34 1013.4
20260502204243 7 286 1.6 11.3 0.00 0.00 0.00 33 1013.4
20260502203644 8 260 3.2 11.3 0.00 0.00 0.00 33 1013.4
20260502203044 8 288 1.6 8.0 0.00 0.00 0.00 32 1013.3
20260502202443 8 15 0.0 8.0 0.00 0.00 0.00 33
20260502201843 8 274 3.2 11.3 0.00 0.00 0.00 34 1013.6
20260502201243 8 285 1.6 11.3 0.00 0.00 0.00 35 1013.7
20260502200643 7 274 1.6 8.0 0.00 0.00 0.00 33 1013.9
20260502200043 7 287 4.8 11.3 0.00 0.00 0.00 34 1013.9
20260502195443 8 306 1.6 11.3 0.00 0.00 0.00 34 1013.9
20260502194843 7 281 1.6 8.0 0.00 0.00 0.00 34 1013.9
20260502194244 7 269 3.2 11.3 0.00 0.00 0.00 34 1014.0
20260502193644 7 302 3.2 16.1 0.00 0.00 0.00 34 1014.2
20260502193044 7 309 3.2 11.3 0.00 0.00 0.00 34 1014.1
20260502192445 7 282 3.2 16.1 0.00 0.00 0.00 32 1014.2
20260502191844 7 270 3.2 11.3 0.00 0.00 0.00 33 1014.3
20260502191244 7 269 1.6 11.3 0.00 0.00 0.00 34 1014.2
20260502190645 8 283 3.2 11.3 0.00 0.00 0.00 34 1014.2
20260502190045 8 285 1.6 8.0 0.00 0.00 0.00 33 1014.3
20260502184845 8 225 1.6 11.3 0.00 0.00 0.00 34 1014.3
20260502184245 7 283 3.2 11.3 0.00 0.00 0.00 33 1014.3
20260502183645 7 334 3.2 11.3 0.00 0.00 0.00 33 1014.3
20260502183044 7 343 3.2 27.4 0.00 0.00 0.00 33
20260502182446 7 297 4.8 11.3 0.00 0.00 0.00 32 1014.4
20260502181844 8 243 1.6 8.0 0.00 0.00 0.00 34 1014.5
20260502181244 7 276 1.6 8.0 0.00 0.00 0.00 33 1014.4
20260502180644 7 276 3.2 16.1 0.00 0.00 0.00 32 1014.6